Location: Brompton
(51.4000°N, 0.5333°E)
Time: 11:38:17
(UTC+00:00)

Cosmos 1898 Rocket - Pass Details

Date: 30 September 2021
Orbit: 752 x 784 km, 74.0° (Epoch: 26 October)

Event Time Altitude Azimuth Distance (km) Brightness Sun altitude
Rises 18:16:05 0° 151° (SSE) 3,207 6.4 -6.8°
Reaches altitude 10° 18:19:19 10° 130° (SE) 2,293 5.5 -7.4°
Maximum altitude 18:22:20 16° 94° (E) 1,935 4.9 -7.8°
Drops below altitude 10° 18:25:22 10° 58° (ENE) 2,316 5.5 -8.3°
Sets 18:28:39 0° 38° (NE) 3,256 6.4 -8.8°
